Skip Page Navigation
NASA JPL Caltech
NASA Logo - Jet Propulsion Laboratory + View the NASA Portal
+ Center for Near-Earth Object Studies
JPL Home Earth Solar System Stars & Galaxies Technology
JPL Solar System Dynamics
BODIES ORBITS EPHEMERIDES TOOLS PHYSICAL DATA DISCOVERY FAQ SITE MAP
JPL Small-Body Database Browser
Search: [ help ]  
134797 (2000 EE25)
Classification: Main-belt Asteroid          SPK-ID: 2134797
Ephemeris | Orbit Diagram | Orbital Elements | Mission Design | Physical Parameters | Discovery Circumstances | Close-Approach Data ]

[ show orbit diagram ]
Orbital Elements at Epoch 2459200.5 (2020-Dec-17.0) TDB
Reference: JPL 23 (heliocentric ecliptic J2000)
 Element Value Uncertainty (1-sigma)   Units 
e .1964313593168706 8.415e-08  
a 2.541952439561443 1.166e-08 au
q 2.042633266539553 2.1971e-07 au
i 2.672010114616771 7.3072e-06 deg
node 10.25494443579719 7.0133e-05 deg
peri 31.4900949053887 7.5569e-05 deg
M 169.2406852936468 2.5553e-05 deg
tp 2458504.591995059158
(2019-Jan-21.09199506)
0.0001015 TDB
period 1480.299381582024
4.05
1.0185e-05
2.789e-08
d
yr
n .2431940487709056 1.6733e-09 deg/d
Q 3.041271612583332 1.395e-08 au
  Orbit Determination Parameters
   # obs. used (total)      773  
   data-arc span      7819 days (21.41 yr)  
   first obs. used      1998-11-21  
   last obs. used      2020-04-18  
   planetary ephem.      DE441  
   SB-pert. ephem.      SB441-N16  
   condition code      0  
   norm. resid. RMS      .53768  
   source      ORB  
   producer      Otto Matic  
   solution date      2021-Apr-13 18:09:58  

Additional Information
 Earth MOID = 1.05059 au 
 Jupiter MOID = 2.37623 au 
 T_jup = 3.416 
[ show covariance matrix ]

Ephemeris | Orbit Diagram | Orbital Elements | Mission Design | Physical Parameters | Discovery Circumstances | Close-Approach Data ]

Physical Parameter Table
Parameter Symbol Value Units Sigma Reference Notes
absolute magnitude H 16.07   n/a E2021B55  

134797 (2000 EE25)          Discovered 2000-Mar-08 by Spacewatch at Kitt Peak
Reference: 20060907/Numbers.arcLast Updated: 2006-09-10

[ show close-approach data ]
Alternate Designations
 2000 EE25 = 2002 TR181 
Ephemeris | Orbit Diagram | Orbital Elements | Mission Design | Physical Parameters | Discovery Circumstances | Close-Approach Data ]
ABOUT SSD CREDITS/AWARDS PRIVACY/COPYRIGHT GLOSSARY LINKS
FirstGov 2021-Apr-19 07:22 UT
(server date/time)  
NASA Home Page
Site Manager:   Ryan S. Park
Webmaster  Alan B. Chamberlin